www.pogodaiklimat.ru

Погода и климат >> Архив погоды >> Мали >> Йелимане


ПОГОДА в Йелимане

  • Прогноз погоды в Йелимане
  • Монитор погоды в Йелимане

АРХИВ ПОГОДЫ в Йелимане

Время (UTC), дата Ветер
(напр.,м/с)
 
Видим.   Явления Облачность Т
(С)
Тd
(С)
f
(%)
Тe
(С)
Тes
(С)
Комфортность P
(гПа)
Po
(гПа)
Тmin
(С)
Tmax
(С)
R
(мм)
R24
(мм)
S
(см)
00 17.01 СВ 3 10 км 1/0
[Ci sp]
+26.2 -9.4 9 +23 +23 комфорт 1012.3 1000.9
03 17.01 С 3 10 км ясно +23.5 -9.7 10 +21 +21 комфорт 1011.8 1000.4
06 17.01 С 2 10 км ясно +22.8 -8.8 11 +21 +21 комфорт 1011.9 1000.4 +22.5
09 17.01 С 6 10 км 1/0
[Ci sp]
+22.5 -7.9 12 +21 +22 комфорт 1013.9 1002.3
12 17.01 С 6 10 км 4/0
[Ci sp]
+31.2 -4.2 10 +28 +33 жарко 1013.0 1001.5
15 17.01 С 7 10 км 1/0
[Ci sp]
+33.5 -6.9 7 +29 +32 жарко 1010.5 999.1
18 17.01 С 6 10 км 9/0
[Ci sp]
+32.0 -6.2 8 +28 +28 жарко 1009.9 998.4 +34.0
21 17.01 С 4 10 км 6/0
[Ci sp]
+26.5 -7.0 10 +23 +23 комфорт 1011.8 1000.2
00 18.01 С 3 10 км 6/0
[Ci sp]
+22.0 -5.4 15 +21 +21 комфорт 1012.6 1001.1
03 18.01 В 3 10 км 4/0
[Ci sp]
+22.0 -6.5 14 +20 +20 1011.8 1000.3
06 18.01 В 2 10 км 4/0
[Ci sp]
+21.2 -8.3 13 +20 +20 1012.3 1000.8 +20.5
09 18.01 С 3 10 км 1/0
[Ac lent]
+23.0 -13.3 8 +20 +23 1014.5 1002.9
12 18.01 С 6 10 км 3/0
[Ac lent]
+28.7 -14.9 5 +25 +29 комфорт 1014.6 1003.0
15 18.01 С 6 10 км 4/0
[Ac lent]
+30.9 -11.7 6 +27 +29 жарко 1012.3 1000.8
18 18.01 С 5 10 км 4/0
[Ac lent]
+29.5 -13.4 5 +25 +25 комфорт 1012.9 1001.3 +31.6
21 18.01 С 6 10 км 5/0
[Ci sp]
+24.8 -8.4 10 +22 +22 комфорт 1015.3 1003.6
00 19.01 С 7 10 км 3/0
[Ci sp]
+22.7 -3.6 17 +21 +21 комфорт 1016.1 1004.5
03 19.01 С 11 10 км 5/0
[Ci sp]
+20.2 -2.3 22 +19 +19 1015.9 1004.3
06 19.01 С 10 10 км 3/0
[Ci sp]
+18.5 -0.3 28 +17 +17 1016.7 1005.0 +18.3
09 19.01 С 7 10 км 3/0
[Ac lent]
+20.5 +1.7 29 +20 +21 1019.3 1007.5
12 19.01 С 7 10 км 1/0
[Ci sp]
+25.5 +0.1 19 +24 +28 комфорт 1018.8 1007.3
15 19.01 С 7 10 км 1/0
[Ci sp]
+28.0 -2.4 14 +25 +28 комфорт 1015.4 1003.7
18 19.01 СВ 7 10 км 1/0
[Ci sp]
+27.0 -2.8 14 +24 +24 комфорт 1015.4 1003.7 +29.0
21 19.01 С 4 10 км 1/0
[Ci sp]
+21.0 -1.8 22 +21 +21 комфорт 1017.1 1005.3
00 20.01 СВ 7 10 км 1/0
[Ci sp]
+21.0 -4.0 18 +20 +20 1017.7 1006.0
03 20.01 В 8 10 км 1/0
[Ci sp]
+20.0 -4.1 19 +19 +19 1017.3 1005.8
06 20.01 В 4 10 км 6/0
[Ci sp]
+17.5 -3.1 24 +17 +17 1017.5 1005.7 +17.0
09 20.01 В 7 10 км 8/0
[Ci sp]
+21.5 -8.0 13 +20 +21 1019.3 1007.5
12 20.01 СВ 7 10 км 6/0
[Ci sp]
+27.0 -12.3 7 +23 +27 комфорт 1018.4 1006.7
15 20.01 СВ 7 10 км 9/0
[Ci sp]
+30.0 -7.2 8 +26 +28 жарко 1015.1 1003.5
18 20.01 С 7 10 км 9/0
[Ci sp]
+28.5 -9.6 8 +25 +25 комфорт 1015.2 1003.5 +31.0
21 20.01 С 3 10 км 4/0
[Ci sp]
+21.0 -5.5 16 +21 +21 комфорт 1017.1 1005.3
00 21.01 В 2 10 км 4/0
[Ci sp]
+19.0 -4.2 20 +19 +19 1018.0 1006.3
03 21.01 В 2 10 км 3/0
[Ci sp]
+18.0 -6.6 18 +19 +19 1017.4 1005.7
06 21.01 В 4 10 км 3/0
[Ci sp]
+17.8 -12.4 12 +18 +18 1017.5 1005.8 +17.0
09 21.01 В 3 10 км 4/0
[Ci sp]
+21.5 -11.4 10 +20 +23 1018.8 1007.0
12 21.01 В 4 10 км 3/0
[Ci sp]
+26.8 -16.4 5 +23 +32 комфорт 1017.1 1005.4
15 21.01 С 4 10 км 5/0
[Ci sp]
+28.8 -10.7 7 +25 +31 комфорт 1014.4 1002.7
18 21.01 С 4 10 км 5/0
[Ci sp]
+28.2 -12.7 6 +24 +24 комфорт 1014.2 1002.5 +29.7
21 21.01 СВ 2 10 км 8/0
[Ci sp]
+20.4 -7.2 15 +20 +20 1016.2 1004.4
00 22.01 СВ 2 10 км 8/0
[Ci sp]
+20.5 -8.1 14 +20 +20 1016.7 1005.0
03 22.01 С 3 10 км 8/0
[Ci sp]
+16.0 -7.5 19 +16 +16 1015.4 1003.7
06 22.01 СВ 3 10 км 9/0
[Ci sp]
+18.8 -10.3 13 +19 +19 1015.6 1003.9 +14.4
09 22.01 С 2 10 км 9/0
[Ci sp]
+19.0 -13.3 10 +19 +23 1017.8 1005.9
12 22.01 С 7 10 км 9/0
[Ci sp]
+27.0 -8.4 9 +24 +27 комфорт 1016.8 1005.1
15 22.01 С 7 10 км 9/0
[Ci sp]
+28.0 -8.1 9 +25 +27 комфорт 1014.2 1002.5
18 22.01 СВ 7 10 км 9/0
[Ac As]
+27.5 -3.8 13 +25 +25 комфорт 1013.9 1002.2 +29.0
21 22.01 СВ 4 10 км 9/0
[Ac As Ci sp]
+23.0 +0.5 23 +22 +22 комфорт 1016.0 1004.2
00 23.01 СВ 7 10 км 9/0
[Ac As]
+23.0 +0.5 23 +22 +22 комфорт 1015.7 1004.1
03 23.01 ЮВ 2 10 км 9/0
[Ac lent Ci sp]
+21.7 +4.1 32 +22 +22 комфорт 1014.9 1003.3
09 23.01 ЮВ 3 10 км 6/0
[Ci sp]
+22.5 +1.3 25 +22 +25 комфорт 1016.8 1005.1
12 23.01 В 3 10 км 8/0
[Ci sp]
+27.5 +0.7 18 +25 +36 комфорт 1015.8 1004.2
15 23.01 В 3 10 км 8/0
[Ac lent Ci sp]
+30.5 +0.9 15 +28 +34 жарко 1012.5 1000.9
18 23.01 С 6 10 км 9/0
[Ac As Ci sp]
+29.0 -2.1 13 +26 +26 жарко 1012.6 1001.0 +31.0
21 23.01 С 3 10 км 9/0
[Ac As Ci sp]
+24.2 +0.4 21 +23 +23 комфорт 1013.9 1002.2

 

Местоположение метеостанции Йелимане (Мали): широта 15.12 долгота -10.56 высота над уровнем моря 100 м.

В архиве по умолчанию представлена погода в Йелимане за последнюю неделю. Архивные данные за месяц целиком и за предыдущие месяцы, начиная с января 2011 года, Вы можете получить, выбрав интересующий диапазон дат из раскрывающегося списка и нажав кнопку "Ввод!".


*Определитесь, кто Вы:
робот инопланетянин человек

Внимание! Время в таблицах - всемирное. Для получения местного времени необходимо прибавить поправку, которая равна 0 ч.

Смотрите также архив погоды в соседних городах и на ближайших метеорологических станциях:

Погода в Каесе (Мали) (121 км)
Погода в Ниоро-Дю-Сахель (Мали) (130 км)
Погода в Киффе (Мавритания) (190 км)
Погода в Аюн-эль-Атрус (Мавритания) (204 км)
Погода в Ките (Мали) (257 км)
Погода в Кеньебе (Мали) (263 км)
Погода в Матаме (Сенегал) (294 км)
Погода в Кедугу (Сенегал) (335 км)
Погода в Фатото (Гамбия) (335 км)
Погода в Каэди (Мавритания) (336 км)

Пояснения к столбцам:

Ветер - указаны скорость ветра в м/с - средняя за 10 мин, порывы в срок и между сроками (в фигурных скобках) и направление, откуда дует ветер: С - северный, СВ - северо-восточный, В - восточный, ЮВ - юго-восточный, Ю - южный, ЮЗ - юго-западный, З - западный, СЗ - северо-западный.
Видимость - горизонтальная дальность видимости в метрах или километрах. При видимости от 1 до 10 км при отсутствии осадков обычно наблюдается дымка, при ухудшении видимости до 1 км и менее - туман. В сухую погоду видимость может ухудшаться дымом, пылью или мглою.
Явления - указаны атмосферные явления, наблюдавшиеся в срок или в последний час перед сроком; фигурными скобками обозначены явления, наблюдавшиеся между сроками (за 1-3 часа до срока); квадратными скобками обозначены град или гололедные отложения с указанием их диаметра в мм.
Облачность - указаны через наклонную черту общая и нижняя облачность в баллах и высота нижней границы облаков в метрах; квадратными скобками обозначены формы облаков: Ci - перистые, Cs - перисто-слоистые, Cc - перисто-кучевые, Ac - высококучевые, As - высокослоистые, Sc - слоисто-кучевые, Ns - слоисто-дождевые, Cu - кучевые, Cb - кучево-дождевые. Подробнее классификацию облаков см. в Атласе облаков (PDF).
T - Температура воздуха - температура, измеренная на высоте 2 м над землей.
Td - Температура точки росы - температура, при понижении до которой содержащийся в воздухе водяной пар достигнет насыщения.
f - Относительная влажность воздуха - влажноcть воздуха, измеренная на высоте 2 м над землей.
Te - Эффективная температура - температура, которую ощущает одетый по сезону человек в тени. Характеристика душности погоды. При расчете учитывается влияние влажности воздуха и скорости ветра на теплоощущения человека.
Tes - Эффективная температура на солнце - температура, которую ощущает человек, с поправкой на солнечный нагрев. Характеристика знойности погоды. Зависит от высоты солнца над горизонтом, облачности и скорости ветра. Ночью, в пасмурную погоду, а также при ветре 12 м/с и более поправка равна нулю.
P - Атмосферное давление - приведенное к уровню моря атмосферное давление.
Po - Атмосферное давление - измеренное на уровне метеостанции атмосферное давление.
Tmin - Минимальная температура - минимум температуры воздуха на высоте 2 м над землей.
Tmax - Максимальная температура - максимум температуры воздуха на высоте 2 м над землей.
R - Количество осадков - Количество выпавших осадков за период времени, мм. При наведении курсора мыши на число - период времени, за который выпало указанное количество осадков.
R24 - Количество осадков - Количество выпавших осадков за 24 часа, мм.
S - Снежный покров - Высота снежного покрова, см. При наведении курсора мыши на число - состояние снежного покрова и степень покрытия местности в баллах.